When you browse on this site, cookies collect data to enhance your experience and personalize the content and advertising you see.
Visit our Privacy Policy to learn more. By continuing to use the site, you agree to this use of cookies and data.
  • In Slovakia
  • List of Countries
  • For 7 days
  • Water Temperature
  • Weather Map
  • Weather Widgets
  • user-avatar
    Login

    Hourly Weather Tirana

    Today, 22 January, Wednesday

    Time Temperature Precipitation Wind Pressure Humidity
    00:00 +5°C° 0 mm 2 mps 768 mmHg 51%
    01:00 +5°C° 0 mm 2 mps 768 mmHg 50%
    02:00 +4°C° 0 mm 2 mps 768 mmHg 50%
    03:00 +4°C° 0 mm 2 mps 767 mmHg 50%
    04:00 +4°C° 0 mm 2 mps 767 mmHg 49%
    05:00 +4°C° 0 mm 2 mps 767 mmHg 49%
    06:00 +5°C° 0 mm 1 mps 767 mmHg 48%
    07:00 +4°C° 0 mm 1 mps 766 mmHg 48%
    08:00 +6°C° 0 mm 1 mps 766 mmHg 46%
    09:00 +8°C° 0 mm 1 mps 766 mmHg 43%
    10:00 +10°C° 0 mm 1 mps 766 mmHg 41%
    11:00 +10°C° 0 mm 1 mps 766 mmHg 42%
    12:00 +11°C° 0 mm 1 mps 765 mmHg 42%
    13:00 +11°C° 0 mm 1 mps 764 mmHg 43%
    14:00 +11°C° 0 mm 1 mps 764 mmHg 49%
    15:00 +10°C° 0 mm 1 mps 764 mmHg 55%
    16:00 +9°C° 0 mm 0 mps 763 mmHg 60%
    17:00 +9°C° 0 mm 1 mps 763 mmHg 62%
    18:00 +8°C° 0 mm 1 mps 763 mmHg 63%
    19:00 +7°C° 0 mm 1 mps 763 mmHg 65%
    20:00 +6°C° 0 mm 1 mps 763 mmHg 64%
    21:00 +6°C° 0 mm 1 mps 762 mmHg 64%
    22:00 +5°C° 0 mm 2 mps 762 mmHg 63%
    23:00 +5°C° 0 mm 2 mps 762 mmHg 63%

    Tomorrow, 23 January, Thursday

    Time Temperature Precipitation Wind Pressure Humidity
    00:00 +5°C° 0 mm 2 mps 762 mmHg 64%
    01:00 +4°C° 0 mm 2 mps 762 mmHg 64%
    02:00 +4°C° 0 mm 2 mps 762 mmHg 64%
    03:00 +4°C° 0 mm 2 mps 762 mmHg 65%
    04:00 +4°C° 0 mm 2 mps 761 mmHg 65%
    05:00 +4°C° 0 mm 2 mps 762 mmHg 64%
    06:00 +4°C° 0 mm 2 mps 762 mmHg 63%
    07:00 +5°C° 0 mm 1 mps 762 mmHg 63%
    08:00 +5°C° 0 mm 2 mps 762 mmHg 57%
    09:00 +7°C° 0 mm 2 mps 762 mmHg 52%
    10:00 +9°C° 0 mm 2 mps 762 mmHg 47%
    11:00 +10°C° 0 mm 2 mps 762 mmHg 45%
    12:00 +11°C° 0 mm 3 mps 762 mmHg 43%
    13:00 +12°C° 0 mm 4 mps 762 mmHg 40%
    14:00 +12°C° 0 mm 4 mps 762 mmHg 45%
    15:00 +11°C° 0 mm 4 mps 762 mmHg 50%
    16:00 +10°C° 0 mm 5 mps 762 mmHg 54%
    17:00 +10°C° 0 mm 4 mps 762 mmHg 54%
    18:00 +8°C° 0 mm 4 mps 763 mmHg 55%
    19:00 +6°C° 0 mm 4 mps 763 mmHg 55%
    20:00 +7°C° 0 mm 3 mps 763 mmHg 54%
    21:00 +5°C° 0 mm 3 mps 763 mmHg 54%
    22:00 +5°C° 0 mm 3 mps 764 mmHg 53%
    23:00 +5°C° 0 mm 3 mps 764 mmHg 52%

    Day after tomorrow, 24 January, Friday

    Time Temperature Precipitation Wind Pressure Humidity
    00:00 +5°C° 0 mm 3 mps 764 mmHg 51%
    01:00 +5°C° 0 mm 3 mps 764 mmHg 50%
    02:00 +4°C° 0 mm 3 mps 764 mmHg 49%
    03:00 +4°C° 0 mm 3 mps 764 mmHg 48%
    04:00 +4°C° 0 mm 3 mps 764 mmHg 48%
    05:00 +4°C° 0 mm 3 mps 764 mmHg 48%
    06:00 +4°C° 0 mm 3 mps 765 mmHg 48%
    07:00 +4°C° 0 mm 3 mps 765 mmHg 49%
    08:00 +7°C° 0 mm 3 mps 765 mmHg 48%
    09:00 +9°C° 0 mm 3 mps 765 mmHg 48%
    10:00 +11°C° 0 mm 3 mps 765 mmHg 48%
    11:00 +12°C° 0 mm 3 mps 765 mmHg 47%
    12:00 +12°C° 0 mm 3 mps 764 mmHg 46%
    13:00 +14°C° 0 mm 2 mps 764 mmHg 45%
    14:00 +14°C° 0 mm 2 mps 764 mmHg 49%
    15:00 +12°C° 0 mm 3 mps 764 mmHg 54%
    16:00 +11°C° 0 mm 3 mps 763 mmHg 58%
    17:00 +10°C° 0 mm 3 mps 764 mmHg 61%
    18:00 +9°C° 0 mm 3 mps 764 mmHg 65%
    19:00 +8°C° 0 mm 3 mps 764 mmHg 68%
    20:00 +8°C° 0 mm 3 mps 764 mmHg 68%
    21:00 +8°C° 0 mm 3 mps 764 mmHg 69%
    22:00 +7°C° 0 mm 3 mps 764 mmHg 70%
    23:00 +7°C° 0 mm 3 mps 764 mmHg 70%

    25 January, Saturday

    Time Temperature Precipitation Wind Pressure Humidity
    00:00 +7°C° 0 mm 3 mps 764 mmHg 69%
    01:00 +7°C° 0 mm 3 mps 763 mmHg 69%
    02:00 +7°C° 0 mm 3 mps 763 mmHg 69%
    03:00 +7°C° 0 mm 4 mps 763 mmHg 69%
    04:00 +7°C° 0 mm 4 mps 762 mmHg 69%
    05:00 +7°C° 0 mm 4 mps 762 mmHg 70%
    06:00 +7°C° 0 mm 4 mps 762 mmHg 71%
    07:00 +7°C° 0 mm 4 mps 762 mmHg 72%
    08:00 +8°C° 0 mm 4 mps 762 mmHg 71%
    09:00 +10°C° 0 mm 4 mps 762 mmHg 70%
    10:00 +11°C° 0 mm 4 mps 763 mmHg 69%
    11:00 +12°C° 0 mm 4 mps 762 mmHg 68%
    12:00 +12°C° 0 mm 5 mps 762 mmHg 67%
    13:00 +13°C° 0 mm 5 mps 762 mmHg 66%
    14:00 +12°C° 0.1 mm 5 mps 761 mmHg 68%
    15:00 +12°C° 0.1 mm 5 mps 761 mmHg 70%
    16:00 +12°C° 0.1 mm 5 mps 761 mmHg 72%
    17:00 +12°C° 0.1 mm 5 mps 761 mmHg 72%
    18:00 +10°C° 0.1 mm 5 mps 761 mmHg 72%
    19:00 +11°C° 0.1 mm 4 mps 761 mmHg 73%
    20:00 +11°C° 0.1 mm 4 mps 761 mmHg 73%
    21:00 +11°C° 0.1 mm 4 mps 761 mmHg 74%
    22:00 +11°C° 0.1 mm 4 mps 761 mmHg 75%
    23:00 +10°C° 0.1 mm 4 mps 761 mmHg 76%

    26 January, Sunday

    Time Temperature Precipitation Wind Pressure Humidity
    00:00 +10°C° 0.1 mm 4 mps 761 mmHg 77%
    01:00 +9°C° 0.1 mm 3 mps 760 mmHg 78%
    02:00 +9°C° 0.1 mm 3 mps 760 mmHg 77%
    03:00 +9°C° 0.1 mm 3 mps 760 mmHg 76%
    04:00 +9°C° 0.1 mm 3 mps 760 mmHg 76%
    05:00 +9°C° 0.1 mm 3 mps 760 mmHg 75%
    06:00 +8°C° 0.1 mm 4 mps 760 mmHg 74%
    07:00 +8°C° 0.1 mm 4 mps 760 mmHg 73%
    08:00 +10°C° 0 mm 4 mps 760 mmHg 71%
    09:00 +11°C° 0 mm 4 mps 760 mmHg 68%
    10:00 +12°C° 0 mm 4 mps 760 mmHg 65%
    11:00 +13°C° 0.1 mm 4 mps 759 mmHg 65%
    12:00 +13°C° 0.1 mm 4 mps 759 mmHg 64%
    13:00 +14°C° 0.1 mm 4 mps 758 mmHg 64%
    14:00 +13°C° 0.1 mm 4 mps 758 mmHg 70%
    15:00 +12°C° 0.1 mm 4 mps 758 mmHg 75%
    16:00 +12°C° 0.1 mm 3 mps 758 mmHg 80%
    17:00 +11°C° 0.2 mm 3 mps 758 mmHg 80%
    18:00 +11°C° 0.2 mm 3 mps 758 mmHg 80%
    19:00 +11°C° 0.2 mm 3 mps 759 mmHg 80%
    20:00 +11°C° 0.3 mm 3 mps 759 mmHg 81%
    21:00 +12°C° 0.3 mm 2 mps 759 mmHg 82%
    22:00 +12°C° 0.3 mm 2 mps 759 mmHg 82%
    23:00 +10°C° 0.1 mm 2 mps 759 mmHg 83%

    27 January, Monday

    Time Temperature Precipitation Wind Pressure Humidity
    00:00 +10°C° 0.1 mm 2 mps 759 mmHg 84%
    01:00 +10°C° 0.1 mm 2 mps 759 mmHg 84%
    02:00 +9°C° 0 mm 2 mps 759 mmHg 84%
    03:00 +9°C° 0 mm 2 mps 759 mmHg 84%
    04:00 +9°C° 0 mm 2 mps 759 mmHg 84%
    05:00 +9°C° 0 mm 2 mps 759 mmHg 84%
    06:00 +9°C° 0 mm 2 mps 760 mmHg 84%
    07:00 +9°C° 0 mm 2 mps 760 mmHg 84%
    08:00 +12°C° 0 mm 1 mps 760 mmHg 79%
    09:00 +13°C° 0 mm 1 mps 760 mmHg 74%
    10:00 +15°C° 0 mm 1 mps 761 mmHg 69%
    11:00 +15°C° 0 mm 1 mps 761 mmHg 67%
    12:00 +16°C° 0 mm 2 mps 760 mmHg 65%
    13:00 +16°C° 0 mm 2 mps 760 mmHg 63%
    14:00 +16°C° 0 mm 2 mps 760 mmHg 66%
    15:00 +14°C° 0 mm 3 mps 760 mmHg 69%
    16:00 +14°C° 0 mm 3 mps 760 mmHg 72%
    17:00 +13°C° 0 mm 3 mps 760 mmHg 76%
    18:00 +12°C° 0 mm 3 mps 761 mmHg 79%
    19:00 +11°C° 0 mm 3 mps 761 mmHg 83%
    20:00 +10°C° 0 mm 3 mps 761 mmHg 82%
    21:00 +10°C° 0 mm 3 mps 761 mmHg 81%
    22:00 +10°C° 0 mm 2 mps 762 mmHg 81%
    23:00 +10°C° 0 mm 2 mps 762 mmHg 80%
    Show more